7 * 24
多渠道服务支持
JILIN-1-03是中国于2017年1月9日发射的商业遥感卫星,隶属于吉林一号低轨遥感卫星星座,目前仍在轨运行。该卫星由长光卫星技术有限公司研制,运行于近地低轨道,具备高分辨率成像能力,可为农林资源调查、环境监测、土地规划、地理测绘、灾害预警等领域提供精准遥感数据服务,推动了中国商业遥感应用发展,助力各行各业数字化与精细化管理。
中国
(CN)
| 数据来源 | 国际轨道数据 |
| 星历时间: | 2026-09-11T15:16:17+0800 6小时前 查看轨道信息 |
| 半长轴: | 6813.968km |
| 偏心率: | 0.0004602 |
| 轨道倾角: | 97.197° |
| 近地点辐角 | 195.864° |
| 升交点赤经 | 260.306° |
| 平近点角 | 164.246° |
| 近地点: | 432.695km |
| 远地点: | 438.967km |
| 周期: | 93.295分钟 |
| 每日圈数: | 15.434861 |